SCP
0 0 0 0 0 0 0 0 0 0 0 0 0 0 0 0 0 0 0 0 0 0 0 0 0 0 0 0 0 0 0 0 0 0 0 0 0 0 0 0 0 0 0 0 0
0 0 0 0 0 0 0 0 0 0 0 0 0 0 0 0 0 0 0 0 0 0 0 0 0 0 0 0 0 0 0 0 0 0 0 0 0 0 0 0 0 0 0 0 0
0 0 0 0 0 0 0 0 0 0 0 0 0 0 0 0 0 0 0 0 0 0 0 0 0 0 0 0 0 0 0 0 0 0 0 0 0 0 0 0 0 0 0 0 0
0 0 0 0 0 0 0 0 0 0 0 0 0 0 0 0 0 0 0 0 0 0 0 0 0 0 0 0 0 0 0 0 0 0 0 0 0 0 0 0 0 0 0 0 0
0 0 0 0 0 0 0 0 0 0 0 0 0 0 0 0 0 0 0 0 0 0 0 0 0 0 0 0 0 0 0 0 0 0 0 0 0 0 0 0 0 0 0 0 0
0 0 0 0 0 0 0 0 0 0 0 0 0 0 0 0 0 0 0 0 0 0 0 0 0 0 0 0 0 0 0 0 0 0 0 0 0 0 0 0 0 0 0 0 0
0 0 0 0 0 0 0 0 0 0 0 0 0 0 0 0 0 0 0 0 0 -0 0 0 0 0 0 0 0 0 0 0 0 0 0 0 0 0 0 0 0 0 0 0 0
0 0 0 0 0 0 0 0 0 0 -0 0 0 0 0 0 0 0 0 -0 0 0 0 0 0 0 0 0 0 0 0 0 0 0 0 0 0 0 0 0 0 0 0 0 0
0 0 0 0 0 0 0 0 0 -0 0 0 0 0 0 0 0 0 0 0 0 -0 0 0 0 0 0 0 0 0 0 0 0 0 0 0 0 0 0 0 0 0 0 0 0
0 0 0 0 0 0 0 -0 -0 0 0 0 0 0 0 0 0 0 0 0 0 0 0 0 0 0 0 0 0 0 0 0 0 0 0 0 0 0 0 0 0 0 0 0 0
0 0 0 0 0 0 0 0 0 0 0 0 0 0 0 0 0 0 0 0 0 0 0 0 0 0 0 0 0 0 0 0 0 0 0 0 0 0 0 0 0 0 0 0 0
0 0 0 0 0 0 0 0 0 0 0 0 0 0 0 0 0 0 0 0 0 0 0 0 0 0 0 0 0 0 0 0 0 0 0 0 0 0 0 0 0 0 0 0 0
0 0 0 0 0 0 0 0 0 0 0 0 0 0 0 0 0 0 0 0 0 0 0 0 0 0 0 0 0 0 0 0 0 0 0 0 0 0 0 0 0 0 0 0 0
0 0 0 0 0 0 0 0 0 0 0 0 0 0 0 0 0 0 0 0 0 -0 0 -0 0 0 0 0 0 0 0 0 0 0 0 0 0 0 0 0 0 0 0 0 0
0 0 0 0 0 0 0 0 0 0 0 0 0 0 0 0 0 0 0 0 -0 0 0 0 0 0 0 0 0 0 0 0 0 0 0 0 0 0 0 0 0 0 0 0 0
0 0 0 0 0 0 0 0 0 0 0 0 0 0 0 0 -0 0 0 0 0 0 0 0 0 0 0 0 0 0 0 0 0 0 0 0 0 0 0 0 0 0 0 0 0
0 0 0 0 0 0 0 0 0 0 0 0 0 0 0 0 -0 -0 0 0 0 0 0 0 0 0 0 0 0 0 0 0 0 0 0 0 0 0 0 0 0 0 0 0 0
0 0 0 0 0 0 0 0 0 0 0 0 0 0 0 0 -0 -0 -0 -0 0 0 0 0 0 0 0 0 0 0 0 0 0 0 0 0 0 0 0 0 0 0 0 0 0
0 0 0 0 0 0 0 0 0 0 0 0 0 0 0 0 -0 -0 -0 -0 -0 0 0 0 0 0 0 0 0 0 0 0 0 0 0 0 0 0 0 0 0 0 0 0 0
0 0 0 0 0 0 0 0 0 0 0 0 0 0 0 0 0 0 0 -0 -0 0 0 0 0 0 0 0 0 0 0 0 0 0 0 0 0 0 0 0 0 0 0 0 0
0 0 0 0 0 0 0 0 0 0 0 0 0 -0 -0 -0 -0 0 0 -0 -0 0 0 0 0 0 0 0 0 0 0 0 0 0 0 0 0 0 0 0 0 0 0 0 0
0 0 0 0 0 0 0 0 0 0 0 0 0 -0 -0 -0 -0 -0 0 0 -0 -0 -0 0 0 0 0 0 0 0 0 0 0 0 0 0 0 0 0 0 0 0 0 0 0
0 0 0 0 0 0 0 0 0 0 0 0 0 0 -0 -0 -0 0 0 0 0 -0 -0 0 0 0 0 0 0 0 0 0 0 0 0 0 0 0 0 0 0 0 0 0 0
0 0 0 0 0 0 0 0 0 0 0 0 0 0 0 -0 -0 0 0 0 0 0 0 0 0 0 0 0 0 0 0 0 0 0 0 0 0 0 0 0 0 0 0 0 0
0 0 0 0 0 0 0 0 0 0 0 0 0 0 0 0 -0 -0 0 0 0 0 0 0 0 0 0 0 0 0 0 0 0 0 0 0 0 0 0 0 0 0 0 0 0
0 0 0 0 0 0 0 0 0 0 0 0 0 0 0 0 0 -0 0 0 0 0 0 0 0 0 0 0 0 0 0 0 0 0 0 0 0 0 0 0 0 0 0 0 0
0 0 0 0 0 0 0 0 0 0 0 0 0 0 0 0 0 0 0 0 0 0 0 0 0 0 0 0 0 0 -0 0 0 0 0 0 0 0 0 0 0 0 0 0 0
Wind_Speed_500mb
14 15 16 16 17 20 22 24 27 30 30 30 33 36 38 41 46 45 43 33 47 50 46 42 41 36 30 17 14 11 2 7 9 12 10 10 8 9 10 12 19 23 9 7 33
15 15 17 19 19 21 22 23 24 27 31 33 33 33 35 40 45 50 50 41 32 36 40 37 35 29 15 9 11 13 9 15 10 9 6 5 12 11 11 14 14 22 23 14 34
15 17 19 21 23 24 25 25 26 28 30 32 34 34 32 33 42 13 15 18 13 22 33 24 24 13 10 16 17 11 13 9 10 15 10 5 7 12 14 8 25 40 38 30 40
16 19 21 23 23 26 26 26 27 28 30 33 34 34 32 23 11 2 17 4 36 46 35 20 9 7 9 11 21 9 21 17 9 6 5 5 6 6 23 15 5 30 30 37 44
17 19 22 23 23 25 28 31 33 33 33 36 36 34 32 13 33 30 24 36 60 44 36 19 15 9 8 7 13 10 9 22 37 37 23 12 11 7 22 27 23 16 31 40 43
16 18 20 22 24 27 30 32 36 38 32 31 31 27 22 27 46 37 40 49 32 23 23 18 11 17 17 11 9 6 17 33 26 28 15 13 9 10 15 14 29 21 32 41 43
16 18 21 23 26 28 31 34 37 39 37 34 30 24 22 61 36 25 25 19 8 4 10 16 15 21 1 5 14 14 15 13 16 21 12 19 13 16 44 31 21 28 31 39 43
17 19 22 25 27 29 32 35 38 41 41 38 30 22 27 42 45 47 54 58 49 25 19 23 21 18 17 15 15 8 10 13 3 23 13 26 22 10 40 34 38 30 32 38 44
17 18 23 26 28 31 34 37 43 37 32 23 21 20 27 23 30 37 34 49 51 42 40 31 19 22 11 7 7 8 9 14 7 24 7 14 8 16 25 22 37 37 36 39 42
18 20 21 25 28 31 35 40 30 16 10 22 4 7 19 17 23 28 17 25 40 27 22 16 18 7 7 10 17 9 7 4 12 9 8 9 13 7 8 22 34 34 38 41 45
18 20 20 22 27 30 34 35 29 11 41 16 32 32 36 30 30 20 18 18 20 11 13 23 10 25 24 8 8 8 6 18 6 10 9 15 13 24 10 10 11 25 31 39 47
18 21 21 21 25 28 29 16 21 21 24 35 37 39 48 55 24 22 17 6 13 11 10 3 28 15 10 12 11 8 2 11 7 3 9 3 13 15 11 16 33 25 24 35 35
18 21 23 21 23 17 24 21 32 34 11 23 17 15 24 18 27 44 30 10 4 14 22 13 8 21 15 9 13 11 8 7 7 2 1 2 10 8 10 18 35 38 30 23 31
18 21 23 23 11 24 11 29 34 24 6 10 7 8 11 9 12 29 40 26 10 10 17 13 12 14 10 20 15 10 17 8 3 3 7 1 9 9 10 15 13 39 42 33 24
17 19 20 22 21 18 20 30 32 5 9 13 12 10 25 11 16 2 23 23 18 11 12 16 23 17 7 12 16 11 15 18 5 5 1 2 2 12 2 9 13 23 32 39 31
17 20 20 19 19 15 26 30 5 8 10 14 10 14 16 6 7 9 2 20 10 11 12 5 3 13 15 6 17 14 10 12 7 6 5 7 8 9 7 7 2 5 5 20 29
16 20 20 18 17 20 24 14 9 7 6 17 10 15 18 8 6 3 4 5 6 7 7 2 2 3 6 12 5 3 13 4 5 7 10 6 7 10 10 5 1 3 6 8 19
18 20 19 17 17 16 20 10 10 7 11 8 10 22 6 12 4 7 5 5 4 5 5 7 1 9 6 9 14 12 12 9 12 8 5 3 10 10 3 8 3 17 16 20 23
20 21 16 14 13 10 8 8 13 12 7 9 19 10 11 3 2 5 4 5 4 3 4 5 3 6 2 2 10 9 8 7 12 5 6 6 11 17 5 6 7 20 21 25 28
16 19 7 8 5 6 8 7 5 7 7 1 3 4 8 13 16 13 11 8 5 2 7 1 3 5 5 3 6 9 13 5 5 7 4 7 8 9 2 5 7 9 24 29 34
10 6 4 3 3 4 5 11 8 12 7 5 5 7 6 8 8 13 16 3 7 5 14 5 2 7 1 2 9 3 2 7 8 6 8 5 10 8 3 7 13 13 24 36 42
3 4 3 3 6 6 2 4 6 10 6 7 5 5 5 11 9 7 11 5 5 4 2 3 2 2 3 2 2 2 8 8 8 8 1 4 9 2 9 8 22 23 30 38 40
7 5 8 9 5 4 3 7 7 4 6 7 6 4 3 6 9 6 10 8 22 6 3 3 4 4 6 9 7 3 4 5 8 5 10 9 10 4 8 12 24 38 39 38 39
8 3 6 7 6 11 4 5 6 7 8 8 7 5 4 5 6 9 9 5 16 11 11 4 4 6 11 5 6 9 9 8 8 6 7 10 3 3 6 13 19 37 40 38 34
12 7 7 6 7 7 8 6 3 6 6 4 8 5 4 4 9 6 5 11 4 20 6 4 5 6 2 5 6 7 9 15 15 10 12 10 11 10 8 12 28 37 33 29 26
14 12 9 1 7 9 8 7 13 6 5 6 6 6 3 7 8 8 7 2 4 12 9 5 6 3 4 8 4 6 11 15 7 5 4 7 4 2 10 16 23 29 29 26 27
29 19 8 11 6 8 10 12 11 11 13 21 10 4 4 12 16 25 22 15 8 3 7 7 2 5 6 5 5 11 12 16 8 7 13 11 11 9 6 16 22 22 23 25 20
Wind_Direction_500mb
324 327 336 338 343 340 338 331 325 323 317 312 301 292 291 290 289 290 292 300 298 295 290 288 271 275 282 277 237 174 100 241 228 165 241 170 186 196 194 168 180 188 192 200 184
333 337 338 337 347 346 342 338 329 323 322 320 316 305 293 295 299 293 294 279 295 309 294 284 276 277 273 233 210 186 160 223 226 199 262 214 180 181 174 172 193 195 204 200 183
336 338 335 335 340 342 340 334 329 324 317 316 313 309 301 306 315 325 132 122 21 351 357 274 258 273 230 216 195 210 190 209 274 249 250 258 255 184 169 221 210 208 201 196 185
334 334 334 334 333 333 333 333 331 326 319 316 311 310 306 302 298 5 195 294 338 327 336 336 236 215 217 207 206 212 235 196 221 264 232 214 281 216 206 213 237 228 221 203 195
335 334 329 327 326 328 332 335 333 328 329 325 312 310 317 298 247 251 259 272 293 303 305 302 236 210 209 230 241 210 226 239 244 247 248 254 245 269 261 248 256 221 210 211 206
331 328 328 325 323 324 327 328 332 337 328 322 323 315 320 276 290 281 268 273 292 292 285 279 250 228 272 249 221 281 227 251 253 238 223 204 245 184 261 260 234 224 210 212 212
332 333 327 320 321 323 326 326 331 333 323 306 306 300 281 263 277 256 240 261 307 46 293 271 265 244 180 292 294 279 281 292 234 223 233 203 269 218 248 257 245 231 215 215 214
328 332 326 324 328 329 326 328 331 324 308 298 292 275 263 286 293 269 255 253 257 260 293 287 261 257 221 293 322 198 165 234 200 167 228 171 252 236 239 234 237 235 226 218 218
324 326 323 324 327 328 325 331 331 322 314 323 284 257 271 297 304 307 266 251 260 274 258 268 260 235 191 149 323 249 194 226 319 189 137 189 243 230 243 217 236 236 234 230 225
325 324 321 323 329 329 332 336 342 342 353 345 57 276 265 316 319 321 288 260 252 250 227 239 226 236 177 160 211 206 196 242 206 189 174 196 245 225 180 209 231 238 235 234 234
337 335 325 324 330 334 342 357 9 1 330 272 284 262 263 278 310 288 290 239 216 192 180 224 191 220 214 236 254 53 342 231 235 212 173 220 214 233 235 267 230 235 238 239 241
343 342 330 324 330 338 352 39 26 327 299 302 301 284 278 265 284 275 258 222 179 210 196 232 224 198 192 191 233 291 305 304 285 352 169 214 250 249 228 239 237 231 234 241 243
336 337 334 334 328 346 352 13 356 347 282 301 307 322 330 292 233 252 244 243 203 251 202 190 242 178 173 164 194 218 193 241 279 339 0 10 289 230 238 234 244 238 235 237 240
338 336 336 343 340 339 356 346 345 345 316 290 343 320 317 254 270 256 248 211 175 241 227 217 215 190 176 202 162 210 186 208 223 163 220 60 273 260 233 241 231 237 226 224 226
342 337 338 346 337 337 333 336 337 41 357 302 300 304 321 248 315 8 226 210 208 210 216 196 181 175 163 207 164 211 179 183 152 138 13 267 60 268 318 252 247 238 230 224 219
340 336 329 335 331 322 328 333 21 52 263 326 307 331 334 271 268 307 238 193 203 203 232 306 176 162 199 172 170 147 80 47 67 43 307 204 154 276 212 228 39 53 195 227 220
334 335 328 326 319 321 329 334 36 122 321 311 323 332 320 309 280 242 231 207 214 211 130 124 235 214 163 92 77 183 119 115 156 201 227 310 188 253 243 244 88 68 84 143 175
314 328 327 310 318 326 333 48 81 237 260 294 298 311 21 334 311 320 288 249 253 68 103 139 297 183 183 179 173 187 170 147 171 188 201 331 233 238 177 311 193 110 118 123 131
309 320 322 309 305 332 338 54 198 203 239 307 323 21 319 330 348 314 292 299 145 91 95 117 46 336 244 136 139 197 197 152 105 27 76 225 296 298 152 48 115 122 123 117 121
315 325 320 330 324 350 69 245 208 229 321 17 336 27 325 310 2 328 352 5 38 120 326 16 86 358 349 74 43 179 155 91 2 117 227 275 283 242 307 129 117 132 129 125 124
329 341 7 56 4 35 144 230 280 286 267 228 258 299 296 301 318 330 349 359 10 155 23 346 106 308 262 157 174 109 170 49 115 122 164 150 257 214 297 178 168 154 142 134 128
107 55 135 69 42 56 113 219 296 300 311 289 247 251 275 311 312 318 9 325 349 298 229 60 43 135 223 286 277 280 199 153 145 224 137 133 271 20 260 228 167 151 144 135 129
159 172 181 174 122 289 264 286 268 281 307 326 301 354 280 290 334 338 338 7 17 282 239 253 178 88 3 355 358 202 196 121 110 82 196 144 252 13 77 141 162 148 145 139 133
154 58 118 174 164 144 160 286 290 253 260 273 277 310 297 284 213 305 318 307 349 331 211 22 213 204 185 207 134 171 188 202 148 149 160 224 268 244 131 141 149 154 151 147 142
177 202 174 185 224 170 134 174 205 315 238 275 322 247 272 323 314 304 316 317 334 356 29 345 241 213 322 297 208 197 193 188 197 169 178 205 199 227 182 169 158 155 157 160 163
187 157 165 98 140 159 205 239 195 239 200 269 184 273 243 195 208 283 346 274 309 328 6 334 322 108 306 309 289 248 235 213 221 170 96 150 276 256 134 134 141 152 159 160 154
197 172 162 180 166 159 205 204 213 178 248 243 208 299 296 255 275 280 261 268 263 305 323 335 41 27 286 261 44 325 225 195 190 187 152 163 214 146 140 157 156 153 159 154 156
Wind_Speed_850mb
14 15 16 16 17 20 22 24 27 30 30 30 33 36 38 41 46 45 43 33 47 50 46 42 41 36 30 17 14 11 2 7 9 12 10 10 8 9 10 12 19 23 9 7 33
15 15 17 19 19 21 22 23 24 27 31 33 33 33 35 40 45 50 50 41 32 36 40 37 35 29 15 9 11 13 9 15 10 9 6 5 12 11 11 14 14 22 23 14 34
15 17 19 21 23 24 25 25 26 28 30 32 34 34 32 33 42 13 15 18 13 22 33 24 24 13 10 16 17 11 13 9 10 15 10 5 7 12 14 8 25 40 38 30 40
16 19 21 23 23 26 26 26 27 28 30 33 34 34 32 23 11 2 17 4 36 46 35 20 9 7 9 11 21 9 21 17 9 6 5 5 6 6 23 15 5 30 30 37 44
17 19 22 23 23 25 28 31 33 33 33 36 36 34 32 13 33 30 24 36 60 44 36 19 15 9 8 7 13 10 9 22 37 37 23 12 11 7 22 27 23 16 31 40 43
16 18 20 22 24 27 30 32 36 38 32 31 31 27 22 27 46 37 40 49 32 23 23 18 11 17 17 11 9 6 17 33 26 28 15 13 9 10 15 14 29 21 32 41 43
16 18 21 23 26 28 31 34 37 39 37 34 30 24 22 61 36 25 25 19 8 4 10 16 15 21 1 5 14 14 15 13 16 21 12 19 13 16 44 31 21 28 31 39 43
17 19 22 25 27 29 32 35 38 41 41 38 30 22 27 42 45 47 54 58 49 25 19 23 21 18 17 15 15 8 10 13 3 23 13 26 22 10 40 34 38 30 32 38 44
17 18 23 26 28 31 34 37 43 37 32 23 21 20 27 23 30 37 34 49 51 42 40 31 19 22 11 7 7 8 9 14 7 24 7 14 8 16 25 22 37 37 36 39 42
18 20 21 25 28 31 35 40 30 16 10 22 4 7 19 17 23 28 17 25 40 27 22 16 18 7 7 10 17 9 7 4 12 9 8 9 13 7 8 22 34 34 38 41 45
18 20 20 22 27 30 34 35 29 11 41 16 32 32 36 30 30 20 18 18 20 11 13 23 10 25 24 8 8 8 6 18 6 10 9 15 13 24 10 10 11 25 31 39 47
18 21 21 21 25 28 29 16 21 21 24 35 37 39 48 55 24 22 17 6 13 11 10 3 28 15 10 12 11 8 2 11 7 3 9 3 13 15 11 16 33 25 24 35 35
18 21 23 21 23 17 24 21 32 34 11 23 17 15 24 18 27 44 30 10 4 14 22 13 8 21 15 9 13 11 8 7 7 2 1 2 10 8 10 18 35 38 30 23 31
18 21 23 23 11 24 11 29 34 24 6 10 7 8 11 9 12 29 40 26 10 10 17 13 12 14 10 20 15 10 17 8 3 3 7 1 9 9 10 15 13 39 42 33 24
17 19 20 22 21 18 20 30 32 5 9 13 12 10 25 11 16 2 23 23 18 11 12 16 23 17 7 12 16 11 15 18 5 5 1 2 2 12 2 9 13 23 32 39 31
17 20 20 19 19 15 26 30 5 8 10 14 10 14 16 6 7 9 2 20 10 11 12 5 3 13 15 6 17 14 10 12 7 6 5 7 8 9 7 7 2 5 5 20 29
16 20 20 18 17 20 24 14 9 7 6 17 10 15 18 8 6 3 4 5 6 7 7 2 2 3 6 12 5 3 13 4 5 7 10 6 7 10 10 5 1 3 6 8 19
18 20 19 17 17 16 20 10 10 7 11 8 10 22 6 12 4 7 5 5 4 5 5 7 1 9 6 9 14 12 12 9 12 8 5 3 10 10 3 8 3 17 16 20 23
20 21 16 14 13 10 8 8 13 12 7 9 19 10 11 3 2 5 4 5 4 3 4 5 3 6 2 2 10 9 8 7 12 5 6 6 11 17 5 6 7 20 21 25 28
16 19 7 8 5 6 8 7 5 7 7 1 3 4 8 13 16 13 11 8 5 2 7 1 3 5 5 3 6 9 13 5 5 7 4 7 8 9 2 5 7 9 24 29 34
10 6 4 3 3 4 5 11 8 12 7 5 5 7 6 8 8 13 16 3 7 5 14 5 2 7 1 2 9 3 2 7 8 6 8 5 10 8 3 7 13 13 24 36 42
3 4 3 3 6 6 2 4 6 10 6 7 5 5 5 11 9 7 11 5 5 4 2 3 2 2 3 2 2 2 8 8 8 8 1 4 9 2 9 8 22 23 30 38 40
7 5 8 9 5 4 3 7 7 4 6 7 6 4 3 6 9 6 10 8 22 6 3 3 4 4 6 9 7 3 4 5 8 5 10 9 10 4 8 12 24 38 39 38 39
8 3 6 7 6 11 4 5 6 7 8 8 7 5 4 5 6 9 9 5 16 11 11 4 4 6 11 5 6 9 9 8 8 6 7 10 3 3 6 13 19 37 40 38 34
12 7 7 6 7 7 8 6 3 6 6 4 8 5 4 4 9 6 5 11 4 20 6 4 5 6 2 5 6 7 9 15 15 10 12 10 11 10 8 12 28 37 33 29 26
14 12 9 1 7 9 8 7 13 6 5 6 6 6 3 7 8 8 7 2 4 12 9 5 6 3 4 8 4 6 11 15 7 5 4 7 4 2 10 16 23 29 29 26 27
29 19 8 11 6 8 10 12 11 11 13 21 10 4 4 12 16 25 22 15 8 3 7 7 2 5 6 5 5 11 12 16 8 7 13 11 11 9 6 16 22 22 23 25 20
Wind_Direction_850mb
324 327 336 338 343 340 338 331 325 323 317 312 301 292 291 290 289 290 292 300 298 295 290 288 271 275 282 277 237 174 100 241 228 165 241 170 186 196 194 168 180 188 192 200 184
333 337 338 337 347 346 342 338 329 323 322 320 316 305 293 295 299 293 294 279 295 309 294 284 276 277 273 233 210 186 160 223 226 199 262 214 180 181 174 172 193 195 204 200 183
336 338 335 335 340 342 340 334 329 324 317 316 313 309 301 306 315 325 132 122 21 351 357 274 258 273 230 216 195 210 190 209 274 249 250 258 255 184 169 221 210 208 201 196 185
334 334 334 334 333 333 333 333 331 326 319 316 311 310 306 302 298 5 195 294 338 327 336 336 236 215 217 207 206 212 235 196 221 264 232 214 281 216 206 213 237 228 221 203 195
335 334 329 327 326 328 332 335 333 328 329 325 312 310 317 298 247 251 259 272 293 303 305 302 236 210 209 230 241 210 226 239 244 247 248 254 245 269 261 248 256 221 210 211 206
331 328 328 325 323 324 327 328 332 337 328 322 323 315 320 276 290 281 268 273 292 292 285 279 250 228 272 249 221 281 227 251 253 238 223 204 245 184 261 260 234 224 210 212 212
332 333 327 320 321 323 326 326 331 333 323 306 306 300 281 263 277 256 240 261 307 46 293 271 265 244 180 292 294 279 281 292 234 223 233 203 269 218 248 257 245 231 215 215 214
328 332 326 324 328 329 326 328 331 324 308 298 292 275 263 286 293 269 255 253 257 260 293 287 261 257 221 293 322 198 165 234 200 167 228 171 252 236 239 234 237 235 226 218 218
324 326 323 324 327 328 325 331 331 322 314 323 284 257 271 297 304 307 266 251 260 274 258 268 260 235 191 149 323 249 194 226 319 189 137 189 243 230 243 217 236 236 234 230 225
325 324 321 323 329 329 332 336 342 342 353 345 57 276 265 316 319 321 288 260 252 250 227 239 226 236 177 160 211 206 196 242 206 189 174 196 245 225 180 209 231 238 235 234 234
337 335 325 324 330 334 342 357 9 1 330 272 284 262 263 278 310 288 290 239 216 192 180 224 191 220 214 236 254 53 342 231 235 212 173 220 214 233 235 267 230 235 238 239 241
343 342 330 324 330 338 352 39 26 327 299 302 301 284 278 265 284 275 258 222 179 210 196 232 224 198 192 191 233 291 305 304 285 352 169 214 250 249 228 239 237 231 234 241 243
336 337 334 334 328 346 352 13 356 347 282 301 307 322 330 292 233 252 244 243 203 251 202 190 242 178 173 164 194 218 193 241 279 339 0 10 289 230 238 234 244 238 235 237 240
338 336 336 343 340 339 356 346 345 345 316 290 343 320 317 254 270 256 248 211 175 241 227 217 215 190 176 202 162 210 186 208 223 163 220 60 273 260 233 241 231 237 226 224 226
342 337 338 346 337 337 333 336 337 41 357 302 300 304 321 248 315 8 226 210 208 210 216 196 181 175 163 207 164 211 179 183 152 138 13 267 60 268 318 252 247 238 230 224 219
340 336 329 335 331 322 328 333 21 52 263 326 307 331 334 271 268 307 238 193 203 203 232 306 176 162 199 172 170 147 80 47 67 43 307 204 154 276 212 228 39 53 195 227 220
334 335 328 326 319 321 329 334 36 122 321 311 323 332 320 309 280 242 231 207 214 211 130 124 235 214 163 92 77 183 119 115 156 201 227 310 188 253 243 244 88 68 84 143 175
314 328 327 310 318 326 333 48 81 237 260 294 298 311 21 334 311 320 288 249 253 68 103 139 297 183 183 179 173 187 170 147 171 188 201 331 233 238 177 311 193 110 118 123 131
309 320 322 309 305 332 338 54 198 203 239 307 323 21 319 330 348 314 292 299 145 91 95 117 46 336 244 136 139 197 197 152 105 27 76 225 296 298 152 48 115 122 123 117 121
315 325 320 330 324 350 69 245 208 229 321 17 336 27 325 310 2 328 352 5 38 120 326 16 86 358 349 74 43 179 155 91 2 117 227 275 283 242 307 129 117 132 129 125 124
329 341 7 56 4 35 144 230 280 286 267 228 258 299 296 301 318 330 349 359 10 155 23 346 106 308 262 157 174 109 170 49 115 122 164 150 257 214 297 178 168 154 142 134 128
107 55 135 69 42 56 113 219 296 300 311 289 247 251 275 311 312 318 9 325 349 298 229 60 43 135 223 286 277 280 199 153 145 224 137 133 271 20 260 228 167 151 144 135 129
159 172 181 174 122 289 264 286 268 281 307 326 301 354 280 290 334 338 338 7 17 282 239 253 178 88 3 355 358 202 196 121 110 82 196 144 252 13 77 141 162 148 145 139 133
154 58 118 174 164 144 160 286 290 253 260 273 277 310 297 284 213 305 318 307 349 331 211 22 213 204 185 207 134 171 188 202 148 149 160 224 268 244 131 141 149 154 151 147 142
177 202 174 185 224 170 134 174 205 315 238 275 322 247 272 323 314 304 316 317 334 356 29 345 241 213 322 297 208 197 193 188 197 169 178 205 199 227 182 169 158 155 157 160 163
187 157 165 98 140 159 205 239 195 239 200 269 184 273 243 195 208 283 346 274 309 328 6 334 322 108 306 309 289 248 235 213 221 170 96 150 276 256 134 134 141 152 159 160 154
197 172 162 180 166 159 205 204 213 178 248 243 208 299 296 255 275 280 261 268 263 305 323 335 41 27 286 261 44 325 225 195 190 187 152 163 214 146 140 157 156 153 159 154 156